Regional Weather Roundup
Issued by NWS Austin/San Antonio, TX

Home | Current Version | Previous Version | Text Only | Print | Product List | Glossary On
Versions: 1 2 3 4 5 6 7 8 9 10 11 12 13 14 15 16 17 18 19 20 21 22 23 24 25 26 27 28 29 30 31 32 33 34 35 36 37 38 39 40 41 42 43 44 45 46 47 48 49 50
632
ASUS44 KEWX 180010
RWREWX
SOUTH TEXAS REGIONAL WEATHER ROUNDUP
NATIONAL WEATHER SERVICE AUSTIN/SAN ANTONIO TX
600 PM CST WED JAN 17 2018

NOTE: "FAIR" INDICATED FEW OR NO CLOUDS BELOW 12,000 FEET WITH NO
SIGNIFICANT WEATHER AND/OR OBSTRUCTIONS TO VISIBILITY.

* - THESE STATIONS ARE NOT NWS OR FAA STATIONS...AND ARE NOT SUBJECT
    TO NWS AND FAA QUALITY CONTROL.

TXZ171-172-183>190-180100-
TEXAS HILL COUNTRY AND EDWARDS PLATEAU

CITY           SKY/WX    TMP DP  RH WIND       PRES   REMARKS
JUNCTION       CLOUDY    39  -1  18 NE6       30.51S WCI  35
6HR MIN TEMP:  31; 6HR MAX TEMP:  41;

*LLANO         CLEAR     36   5  27 E3        30.59F
BURNET         NOT AVBL
*HORSESHOE BAY CLEAR     36   7  30 CALM      30.57S
6HR MIN TEMP:  31; 6HR MAX TEMP:  42;

*KERRVILLE     CLOUDY    36   8  30 S5        30.53S WCI  32
6HR MIN TEMP:  33; 6HR MAX TEMP:  38;

*FREDERICKSBRG CLOUDY    36   2  24 E3        30.52F
6HR MIN TEMP:  32; 6HR MAX TEMP:  40;

*ROCKSPRINGS     N/A     34  -2  21 CALM      30.54S
*BOERNE STAGE  CLOUDY    34   9  35 CALM      30.55F
*CASTROVILLE   CLOUDY    35   8  33 SE3       30.61R
HONDO          CLOUDY    37  11  34 SE3       30.58S
6HR MIN TEMP:  33; 6HR MAX TEMP:  37;

*UVALDE        CLOUDY    34   8  34 SE5       30.60R WCI  30
6HR MIN TEMP:  32; 6HR MAX TEMP:  35;

DEL RIO        CLOUDY    37   9  31 E6        30.56R WCI  32
6HR MIN TEMP:  35; 6HR MAX TEMP:  39;

LAUGHLIN AFB   CLOUDY    37   6  27 SE8       30.56R WCI  31
6HR MIN TEMP:  36; 6HR MAX TEMP:  38;

CARRIZO SPRGS  CLOUDY    36  10  35 E5        30.59S WCI  32
*EAGLE PASS    CLOUDY    37   9  30 E7        30.58R WCI  32
*FAITH RANCH   CLOUDY    37  14  38 VRB5      30.58S WCI  34
$$

TXZ173-191>194-202-209-217>225-228-180100-
CENTRAL AND SOUTH CENTRAL TEXAS

CITY           SKY/WX    TMP DP  RH WIND       PRES   REMARKS
GEORGETOWN     CLEAR     32   7  35 E5        30.62F WCI  27
6HR MIN TEMP:  30; 6HR MAX TEMP:  37; 6HR PCP: TRACE;

AUSTIN/BERGSTM PTCLDY    32  13  45 NE7       30.61F WCI  26
6HR MIN TEMP:  29; 6HR MAX TEMP:  37;

AUSTIN/MABRY   CLEAR     33   8  35 CALM      30.61F
6HR MIN TEMP:  31; 6HR MAX TEMP:  38;

*AUSTIN/EXEC   CLEAR     32  14  47 CALM      30.62S
*LAGO VISTA    CLEAR     32   7  35 MISG      30.57S
6HR MIN TEMP:  32; 6HR MAX TEMP:  39;

SAN MARCOS     CLOUDY    32  15  49 N6        30.61F WCI  26
6HR MIN TEMP:  32; 6HR MAX TEMP:  38;

NEW BRAUNFELS  CLOUDY    35  11  36 NE9       30.58F WCI  28
6HR MIN TEMP:  31; 6HR MAX TEMP:  38;

RANDOLPH AFB   CLOUDY    34  10  36 NE7       30.59S WCI  28
6HR MIN TEMP:  33; 6HR MAX TEMP:  36;

PT SAN ANTONIO CLOUDY    35  12  38 E6        30.57S WCI  30
6HR MIN TEMP:  32; 6HR MAX TEMP:  36;

SAN ANTONIO    CLOUDY    35  12  38 E7        30.58F WCI  29
6HR MIN TEMP:  32; 6HR MAX TEMP:  36;

STINSON FIELD  CLOUDY    36  13  38 E5        30.58F WCI  32
6HR MIN TEMP:  32; 6HR MAX TEMP:  37;

*LA GRANGE     NOT AVBL
*GIDDINGS      CLEAR     33  13  43 NE3       30.62F
6HR MIN TEMP:  28; 6HR MAX TEMP:  36;

*GONZALES      CLOUDY    36  14  41 NE8       30.61S WCI  29
6HR MIN TEMP:  31; 6HR MAX TEMP:  38;

$$

TXZ163>164-176>182-195>201-210>213-226-227-235-180100-
SOUTHEAST TEXAS

CITY           SKY/WX    TMP DP  RH WIND       PRES   REMARKS
COLLEGE STN    CLEAR     33   9  36 NE7       30.63F WCI  27
6HR MIN TEMP:  30; 6HR MAX TEMP:  38;

*BRYAN         CLEAR     32   8  36 NE3       30.65S
6HR MIN TEMP:  28; 6HR MAX TEMP:  36;

*CALDWELL      CLEAR     33   9  37 NE3       30.63F
6HR MIN TEMP:  27; 6HR MAX TEMP:  37;

*CROCKETT        N/A     30   9  40 CALM      30.66S
*BRENHAM       CLEAR     33  15  47 CALM      30.63F
6HR MIN TEMP:  29; 6HR MAX TEMP:  37;

HUNTSVILLE     CLEAR     34   9  35 CALM      30.62S
6HR MIN TEMP:  28; 6HR MAX TEMP:  37;

CONROE         CLEAR     31  17  56 CALM      30.64R
6HR MIN TEMP:  30; 6HR MAX TEMP:  37;

HOUSTON BUSH   PTCLDY    33  15  47 N6        30.63F WCI  28
6HR MIN TEMP:  32; 6HR MAX TEMP:  39;

HOUSTON HOBBY  FAIR      33  15  47 N7        30.62F WCI  27
6HR MIN TEMP:  30; 6HR MAX TEMP:  37;

*HOUSTON SW AP FAIR      33  15  47 CALM      30.63F
6HR MIN TEMP:  29; 6HR MAX TEMP:  36;

PEARLAND       FAIR      34  16  47 NE7       30.64F WCI  28
6HR MIN TEMP:  29; 6HR MAX TEMP:  37;

HOUSTON HOOKS  FAIR      34  14  43 NE3       30.63F
6HR MIN TEMP:  30; 6HR MAX TEMP:  39;

ELLINGTON FLD  PTCLDY    34  14  44 N6        30.64F WCI  29
SUGAR LAND     FAIR      34  15  46 N6        30.62F WCI  29
6HR MIN TEMP:  31; 6HR MAX TEMP:  39;

*HOUSTON EXEC  FAIR      30  19  64 NE5       30.63F WCI  25
*CLEVELAND MUN FAIR      30  18  61 CALM      30.65S
6HR MIN TEMP:  30; 6HR MAX TEMP:  37;

*WHARTON       CLOUDY    31  21  67 N3        30.64F
6HR MIN TEMP:  28; 6HR MAX TEMP:  33;

*COLUMBUS      FAIR      32  10  40 N5        30.63F WCI  28
6HR MIN TEMP:  28; 6HR MAX TEMP:  36;

*EAGLE LAKE    CLEAR     32  19  59 NE6       30.62F WCI  26
6HR MIN TEMP:  29; 6HR MAX TEMP:  37;

$$

TXZ214>216-236>238-180100-
THE UPPER TEXAS COAST

CITY           SKY/WX    TMP DP  RH WIND       PRES   REMARKS
*ORANGE        FAIR      33  16  50 CALM      30.65S
6HR MIN TEMP:  29; 6HR MAX TEMP:  37;

PORT ARTHUR    FAIR      33  13  43 NE6       30.64R WCI  28
6HR MIN TEMP:  30; 6HR MAX TEMP:  39;

GALVESTON      FAIR      35  20  54 N13       30.63F WCI  26
6HR MIN TEMP:  31; 6HR MAX TEMP:  36;

ANGLETON       CLOUDY    34  19  54 N3        30.61F
6HR MIN TEMP:  31; 6HR MAX TEMP:  36;

*BAY CITY      CLOUDY    34  21  59 N5        30.62F WCI  30
PALACIOS       CLOUDY    33  21  61 N10       30.63F WCI  25
6HR MIN TEMP:  30; 6HR MAX TEMP:  34;

$$

TXZ229>234-239>247-180100-
TEXAS COASTAL BEND AND RIO GRANDE PLAINS

CITY           SKY/WX    TMP DP  RH WIND       PRES   REMARKS
VICTORIA       CLOUDY    34  14  43 N7        30.63S WCI  28
6HR MIN TEMP:  31; 6HR MAX TEMP:  35;

*BEEVILLE      CLOUDY    34  11  39 N8        30.61S WCI  27
6HR MIN TEMP:  30; 6HR MAX TEMP:  34;

ROCKPORT       CLOUDY    34  17  50 NE12      30.62S WCI  25
6HR MIN TEMP:  31; 6HR MAX TEMP:  37;

*PORT ARANSAS  NOT AVBL
*PORT LAVACA   CLOUDY    33  19  57 N8        30.63F WCI  26
6HR MIN TEMP:  31; 6HR MAX TEMP:  34;

*INGLESIDE     CLOUDY    36  16  43 NE8       30.62S WCI  30
CORPUS CHRISTI CLOUDY    35  13  40 NE10      30.61F WCI  27
6HR MIN TEMP:  31; 6HR MAX TEMP:  36;

CORPUS NAS     CLOUDY    37  16  42 NE10      30.61F WCI  30
6HR MIN TEMP:  33; 6HR MAX TEMP:  37;

*ROBSTOWN      CLOUDY    35  10  35 NE6       30.63R WCI  30
ALICE          CLOUDY    35   9  33 N6        30.62R WCI  30
6HR MIN TEMP:  33; 6HR MAX TEMP:  36;

KINGSVILLE NAS CLOUDY    36  12  37 NE3       30.63R
6HR MIN TEMP:  33; 6HR MAX TEMP:  38;

COTULLA        CLOUDY    36   9  32 E5        30.61S WCI  32
6HR MIN TEMP:  33; 6HR MAX TEMP:  37;

LAREDO         CLOUDY    37  15  40 NE6       30.60S WCI  32
6HR MIN TEMP:  36; 6HR MAX TEMP:  40;

$$

TXZ248>255-180100-
DEEP SOUTH TEXAS

CITY           SKY/WX    TMP DP  RH WIND       PRES   REMARKS
BROWNSVILLE    CLOUDY    37  27  65 N12       30.59S WCI  30
PORT ISABEL    NOT AVBL
*SOUTH PADRE   NOT AVBL
HARLINGEN      CLOUDY    37  19  48 N14         N/A  WCI  29
*HEBBRONVILLE  CLOUDY    33  11  40 NE5       30.59F WCI  29
6HR MIN TEMP:  27; 6HR MAX TEMP:  84;

MCALLEN



USA.gov is the U.S. government's official web portal to all federal, state and local government web resources and services.